• In Hungary
  • List of Countries
  • For 7 days
  • Water Temperature
  • Satellite Maps
  • Weather Map
  • News
  • Weather Widgets
  • user-avatar
    Login

    Hourly Weather Kupyansk

    Today, 14 November, Wednesday

    Time Temperature Precipitation Wind Pressure Humidity
    00:00 -7°C° 0 mm 4 mps 767 mmHg 39%
    01:00 -7°C° 0 mm 4 mps 766 mmHg 42%
    02:00 -7°C° 0 mm 4 mps 766 mmHg 45%
    03:00 -5°C° 0 mm 3 mps 765 mmHg 53%
    04:00 -5°C° 0 mm 4 mps 765 mmHg 56%
    05:00 -5°C° 0 mm 4 mps 765 mmHg 59%
    06:00 -5°C° 0 mm 4 mps 764 mmHg 62%
    07:00 -5°C° 0 mm 4 mps 764 mmHg 63%
    08:00 -5°C° 0 mm 4 mps 764 mmHg 63%
    09:00 -6°C° 0 mm 5 mps 764 mmHg 63%
    10:00 -5°C° 0 mm 5 mps 763 mmHg 60%
    11:00 -4°C° 0 mm 5 mps 763 mmHg 58%
    12:00 -1°C° 0 mm 5 mps 763 mmHg 55%
    13:00 -1°C° 0 mm 5 mps 762 mmHg 56%
    14:00 -1°C° 0 mm 5 mps 762 mmHg 56%
    15:00 0°C° 0 mm 5 mps 761 mmHg 57%
    16:00 -1°C° 0 mm 4 mps 761 mmHg 64%
    17:00 -2°C° 0 mm 4 mps 761 mmHg 70%
    18:00 -3°C° 0 mm 4 mps 761 mmHg 76%
    19:00 -4°C° 0 mm 4 mps 761 mmHg 80%
    20:00 -4°C° 0 mm 4 mps 761 mmHg 83%
    21:00 -4°C° 0 mm 4 mps 761 mmHg 87%
    22:00 -4°C° 0 mm 4 mps 761 mmHg 87%
    23:00 -4°C° 0 mm 4 mps 761 mmHg 87%

    Tomorrow, 15 November, Thursday

    Time Temperature Precipitation Wind Pressure Humidity
    00:00 -3°C° 0 mm 4 mps 761 mmHg 87%
    01:00 -4°C° 0 mm 3 mps 761 mmHg 87%
    02:00 -4°C° 0 mm 3 mps 761 mmHg 88%
    03:00 -4°C° 0 mm 3 mps 761 mmHg 88%
    04:00 -4°C° 0 mm 3 mps 761 mmHg 88%
    05:00 -5°C° 0 mm 4 mps 761 mmHg 88%
    06:00 -5°C° 0 mm 4 mps 761 mmHg 88%
    07:00 -5°C° 0 mm 4 mps 761 mmHg 84%
    08:00 -5°C° 0 mm 5 mps 761 mmHg 80%
    09:00 -5°C° 0 mm 5 mps 762 mmHg 76%
    10:00 -4°C° 0 mm 5 mps 762 mmHg 69%
    11:00 -2°C° 0 mm 5 mps 762 mmHg 62%
    12:00 0°C° 0 mm 5 mps 762 mmHg 56%
    13:00 0°C° 0 mm 5 mps 762 mmHg 53%
    14:00 0°C° 0 mm 5 mps 762 mmHg 51%
    15:00 +1°C° 0 mm 5 mps 762 mmHg 49%
    16:00 0°C° 0 mm 5 mps 762 mmHg 52%
    17:00 -1°C° 0 mm 5 mps 763 mmHg 55%
    18:00 -2°C° 0 mm 4 mps 763 mmHg 58%
    19:00 -4°C° 0 mm 5 mps 763 mmHg 57%
    20:00 -4°C° 0 mm 5 mps 764 mmHg 56%
    21:00 -4°C° 0 mm 5 mps 764 mmHg 54%
    22:00 -4°C° 0 mm 5 mps 764 mmHg 53%
    23:00 -4°C° 0 mm 5 mps 764 mmHg 52%

    Day after tomorrow, 16 November, Friday

    Time Temperature Precipitation Wind Pressure Humidity
    00:00 -5°C° 0 mm 5 mps 764 mmHg 51%
    01:00 -5°C° 0 mm 5 mps 765 mmHg 49%
    02:00 -5°C° 0 mm 5 mps 765 mmHg 48%
    03:00 -5°C° 0 mm 5 mps 765 mmHg 47%
    04:00 -5°C° 0 mm 5 mps 765 mmHg 45%
    05:00 -5°C° 0 mm 5 mps 765 mmHg 44%
    06:00 -5°C° 0 mm 5 mps 765 mmHg 42%
    07:00 -5°C° 0 mm 6 mps 765 mmHg 40%
    08:00 -5°C° 0 mm 6 mps 766 mmHg 37%
    09:00 -5°C° 0 mm 6 mps 766 mmHg 35%
    10:00 -4°C° 0 mm 6 mps 766 mmHg 33%
    11:00 -3°C° 0 mm 6 mps 766 mmHg 31%
    12:00 -1°C° 0 mm 6 mps 766 mmHg 29%
    13:00 -1°C° 0 mm 6 mps 766 mmHg 27%
    14:00 -1°C° 0 mm 6 mps 766 mmHg 26%
    15:00 +1°C° 0 mm 6 mps 766 mmHg 25%
    16:00 -1°C° 0 mm 6 mps 766 mmHg 26%
    17:00 -2°C° 0 mm 6 mps 766 mmHg 26%
    18:00 -2°C° 0 mm 6 mps 766 mmHg 27%
    19:00 -3°C° 0 mm 6 mps 766 mmHg 28%
    20:00 -3°C° 0 mm 6 mps 766 mmHg 28%
    21:00 -4°C° 0 mm 6 mps 766 mmHg 29%
    22:00 -4°C° 0 mm 6 mps 766 mmHg 30%
    23:00 -4°C° 0 mm 6 mps 766 mmHg 31%

    17 November, Saturday

    Time Temperature Precipitation Wind Pressure Humidity
    00:00 -5°C° 0 mm 5 mps 767 mmHg 32%
    01:00 -5°C° 0 mm 5 mps 766 mmHg 33%
    02:00 -5°C° 0 mm 6 mps 766 mmHg 34%
    03:00 -5°C° 0 mm 6 mps 766 mmHg 35%
    04:00 -5°C° 0 mm 5 mps 766 mmHg 35%
    05:00 -5°C° 0 mm 5 mps 766 mmHg 36%
    06:00 -6°C° 0 mm 5 mps 766 mmHg 36%
    07:00 -5°C° 0 mm 5 mps 766 mmHg 35%
    08:00 -5°C° 0 mm 6 mps 766 mmHg 35%
    09:00 -5°C° 0 mm 6 mps 766 mmHg 34%
    10:00 -3°C° 0 mm 6 mps 766 mmHg 32%
    11:00 -2°C° 0 mm 6 mps 766 mmHg 30%
    12:00 -1°C° 0 mm 6 mps 765 mmHg 28%
    13:00 0°C° 0 mm 5 mps 765 mmHg 28%
    14:00 +1°C° 0 mm 5 mps 765 mmHg 28%
    15:00 +1°C° 0 mm 5 mps 764 mmHg 27%
    16:00 0°C° 0 mm 5 mps 764 mmHg 29%
    17:00 -1°C° 0 mm 4 mps 764 mmHg 30%
    18:00 -2°C° 0 mm 4 mps 764 mmHg 31%
    19:00 -3°C° 0 mm 4 mps 764 mmHg 31%
    20:00 -2°C° 0 mm 3 mps 764 mmHg 31%
    21:00 -4°C° 0 mm 3 mps 764 mmHg 31%
    22:00 -4°C° 0 mm 3 mps 763 mmHg 31%
    23:00 -4°C° 0 mm 3 mps 763 mmHg 30%

    18 November, Sunday

    Time Temperature Precipitation Wind Pressure Humidity
    00:00 -4°C° 0 mm 2 mps 762 mmHg 30%
    01:00 -4°C° 0 mm 2 mps 762 mmHg 30%
    02:00 -4°C° 0 mm 2 mps 762 mmHg 30%
    03:00 -4°C° 0 mm 2 mps 761 mmHg 29%
    04:00 -4°C° 0 mm 2 mps 761 mmHg 29%
    05:00 -4°C° 0 mm 2 mps 760 mmHg 28%
    06:00 -5°C° 0 mm 2 mps 760 mmHg 28%
    07:00 -4°C° 0 mm 2 mps 759 mmHg 26%
    08:00 -2°C° 0 mm 1 mps 759 mmHg 24%
    09:00 -2°C° 0 mm 1 mps 758 mmHg 23%
    10:00 -2°C° 0 mm 2 mps 758 mmHg 20%
    11:00 -1°C° 0 mm 2 mps 757 mmHg 18%
    12:00 +2°C° 0 mm 2 mps 756 mmHg 15%
    13:00 +1°C° 0 mm 3 mps 756 mmHg 16%
    14:00 +1°C° 0 mm 3 mps 755 mmHg 17%
    15:00 +2°C° 0 mm 3 mps 755 mmHg 18%
    16:00 +1°C° 0 mm 3 mps 754 mmHg 22%
    17:00 0°C° 0 mm 3 mps 754 mmHg 27%
    18:00 -1°C° 0 mm 3 mps 753 mmHg 31%
    19:00 -1°C° 0.1 mm 3 mps 753 mmHg 40%
    20:00 -2°C° 0.1 mm 2 mps 753 mmHg 49%
    21:00 -2°C° 0.1 mm 2 mps 752 mmHg 58%
    22:00 -2°C° 0.3 mm 2 mps 752 mmHg 65%
    23:00 -2°C° 0.3 mm 2 mps 752 mmHg 72%

    19 November, Monday

    Time Temperature Precipitation Wind Pressure Humidity
    00:00 -3°C° 0.3 mm 2 mps 752 mmHg 79%
    01:00 -3°C° 0.3 mm 2 mps 752 mmHg 82%
    02:00 -3°C° 0.3 mm 2 mps 752 mmHg 84%
    03:00 -3°C° 0.3 mm 2 mps 751 mmHg 86%
    04:00 -3°C° 0.2 mm 2 mps 751 mmHg 87%
    05:00 -3°C° 0.2 mm 2 mps 751 mmHg 87%
    06:00 -3°C° 0.2 mm 2 mps 751 mmHg 88%
    07:00 -2°C° 0.2 mm 2 mps 751 mmHg 87%
    08:00 -2°C° 0.2 mm 2 mps 752 mmHg 86%
    09:00 -2°C° 0.2 mm 2 mps 752 mmHg 85%
    10:00 -2°C° 0.2 mm 2 mps 752 mmHg 83%
    11:00 -1°C° 0.2 mm 3 mps 752 mmHg 81%
    12:00 -1°C° 0.2 mm 3 mps 752 mmHg 79%
    13:00 -1°C° 0.1 mm 2 mps 753 mmHg 76%
    14:00 +1°C° 0.1 mm 2 mps 753 mmHg 73%
    15:00 +1°C° 0.1 mm 2 mps 753 mmHg 70%
    16:00 +1°C° 0 mm 2 mps 753 mmHg 69%
    17:00 +1°C° 0 mm 2 mps 754 mmHg 67%
    18:00 -1°C° 0 mm 2 mps 754 mmHg 66%
    19:00 -1°C° 0 mm 2 mps 754 mmHg 68%
    20:00 -1°C° 0 mm 2 mps 755 mmHg 70%
    21:00 -1°C° 0 mm 3 mps 755 mmHg 71%
    22:00 -1°C° 0 mm 3 mps 755 mmHg 77%
    23:00 -1°C° 0 mm 3 mps 755 mmHg 82%
    Show more